Theta_e
291 287 284 285 285 286 285 286 287 285 286 286 285 284 282 282 284 286 287 289 289 290 287 289 288 287 289 291 291 293 304 315 312 316 320 324 326 323 323 323 323 323 323 325 323 323 324 325 326 326 327 328 329 329 330 331 331 331 331 331 330 332 333 332 332 332 332 331 331 331 330 328 328 328 328 327 326 326 327 329 329 329 330 330 331 331
293 286 287 287 287 288 289 288 287 287 288 287 286 284 283 282 283 287 287 289 290 289 285 287 287 288 290 292 291 291 303 311 311 313 318 323 325 323 323 323 323 324 326 325 322 322 323 324 326 327 328 328 327 328 330 330 330 330 331 331 330 331 332 332 332 332 333 332 332 331 329 327 327 327 326 324 325 326 328 329 329 330 330 330 330 331
286 285 288 288 289 290 289 288 288 288 287 286 285 283 282 283 283 287 288 289 291 290 287 287 288 290 292 292 292 291 302 309 312 314 317 322 324 322 323 323 323 324 324 323 323 323 323 324 326 327 327 327 328 329 330 331 330 329 329 330 329 331 331 332 333 333 331 331 332 331 327 327 324 324 325 326 327 329 328 328 329 330 330 330 330 330
285 286 288 290 289 289 288 288 287 287 287 284 284 283 282 283 284 281 285 289 291 291 288 289 288 290 290 288 289 290 295 300 308 312 316 322 323 323 323 324 324 323 323 321 322 322 323 324 325 326 326 327 328 328 329 329 329 328 328 328 329 330 331 332 333 332 331 331 329 327 326 324 324 324 326 326 327 327 328 327 327 327 328 329 329 330
288 289 289 289 289 289 288 287 286 284 283 283 285 283 282 284 284 284 285 288 289 290 290 288 286 284 283 286 287 296 300 298 301 311 314 319 324 325 325 325 325 325 324 321 321 322 323 323 323 324 326 327 327 328 328 329 328 328 327 327 328 329 330 331 331 330 330 328 326 324 323 325 325 325 324 324 323 325 327 325 325 325 327 328 328 327
287 291 289 289 288 288 288 286 285 286 281 281 284 287 286 286 285 285 286 287 283 283 285 288 279 278 281 285 290 297 300 293 299 309 313 318 321 323 322 323 325 325 325 322 321 322 323 323 324 325 326 326 327 327 329 329 328 327 326 327 328 328 329 330 329 329 329 327 325 323 323 321 320 321 322 323 324 323 324 324 320 323 325 326 326 325
289 291 292 288 287 286 286 285 285 287 282 281 283 287 288 288 287 285 286 286 280 281 288 289 281 279 280 288 297 303 303 300 303 307 312 317 320 322 322 322 323 323 321 322 322 323 323 323 323 324 325 325 326 327 329 329 328 327 327 327 328 328 328 329 328 328 326 324 324 324 324 323 323 322 317 317 319 321 316 319 320 320 321 322 324 323
289 289 289 289 287 286 284 284 285 287 283 280 283 287 288 286 286 286 287 285 282 285 287 285 282 280 280 283 299 303 301 302 303 307 312 316 319 320 321 322 323 322 320 320 321 322 323 323 323 323 325 326 326 327 328 328 327 326 326 327 327 328 328 328 327 326 324 324 323 323 322 323 322 322 319 317 315 315 318 319 318 319 318 319 319 319
289 287 287 286 287 283 284 286 287 288 285 285 286 289 287 288 287 287 287 283 283 283 282 280 286 282 277 280 290 300 299 300 302 306 311 315 318 319 321 322 322 321 320 321 320 321 322 323 324 325 325 326 327 327 327 327 327 327 326 326 327 326 327 325 325 324 323 324 323 323 322 321 320 319 318 318 318 317 318 317 316 317 317 317 317 317
289 290 289 289 286 284 287 286 289 289 285 289 288 290 290 289 289 288 283 285 283 281 278 281 283 280 277 277 288 297 301 299 301 305 310 314 317 319 320 321 320 320 320 321 321 321 323 324 325 326 326 326 327 328 328 327 327 326 326 325 325 324 324 323 322 322 321 322 322 322 321 319 318 318 316 316 315 314 315 316 315 315 316 315 315 315
291 300 294 288 286 289 288 288 290 290 291 289 290 288 287 283 283 284 282 280 280 275 280 283 282 283 279 278 287 292 296 300 301 304 307 313 317 319 320 320 319 319 319 320 320 321 323 325 326 326 325 326 327 327 327 326 326 326 325 324 323 322 322 322 320 320 320 320 321 321 320 319 317 316 315 314 313 313 314 315 314 315 313 313 314 315
289 290 291 290 293 291 290 289 289 292 291 291 288 285 283 285 280 281 277 278 275 271 278 279 282 282 278 279 286 288 293 298 304 304 306 311 315 318 319 318 319 319 319 320 319 320 323 324 325 326 325 325 326 326 326 326 326 325 324 323 321 321 321 320 319 318 318 319 320 320 320 319 318 317 316 315 314 314 314 314 313 311 312 312 312 312
287 288 287 289 299 293 289 287 285 287 289 288 284 285 281 275 274 273 276 275 273 275 279 282 282 283 280 281 291 298 301 302 302 307 309 311 314 317 318 318 318 319 319 319 319 320 321 322 323 324 324 325 325 325 325 325 325 325 324 323 321 320 320 319 318 317 317 318 319 319 319 318 318 317 316 315 314 313 314 313 312 312 312 311 313 312
284 285 287 288 289 294 291 285 281 284 285 285 284 280 278 276 270 266 268 270 274 279 281 283 284 281 281 287 293 300 303 304 304 306 311 313 315 316 316 316 316 315 315 315 315 317 317 321 324 325 325 325 325 325 325 325 325 325 324 322 321 320 320 318 317 317 317 317 318 318 318 318 319 318 317 316 315 314 314 314 314 313 313 313 314 312
275 278 284 286 285 290 291 291 290 286 284 287 285 286 282 277 273 269 273 271 276 277 279 283 282 278 284 286 301 302 304 306 305 308 310 312 313 312 313 313 313 313 312 315 317 320 321 323 324 324 325 325 325 325 324 325 325 325 323 322 320 319 319 317 316 316 317 317 316 317 318 318 318 318 318 316 316 315 314 313 313 312 312 314 312 312
282 279 284 288 290 290 289 292 290 286 285 285 284 285 282 281 278 279 274 277 278 279 279 281 279 282 285 298 302 302 305 305 307 307 310 310 311 312 311 311 311 313 315 318 319 320 322 323 323 324 324 324 325 325 325 325 325 324 324 322 320 319 319 318 317 317 317 317 316 316 316 317 318 318 317 316 316 316 315 314 313 312 313 314 313 312
280 280 285 287 289 289 290 291 291 290 281 284 285 282 285 286 284 276 277 279 275 274 275 277 284 285 289 294 301 304 303 303 306 308 308 309 310 311 311 312 313 314 315 317 318 319 321 323 323 323 323 323 324 325 324 324 325 324 323 321 319 318 319 318 317 317 317 316 316 316 316 316 316 316 316 316 315 314 314 314 313 313 313 313 313 313
279 280 285 287 289 290 290 290 292 290 289 285 282 284 288 289 287 282 275 271 269 271 271 280 282 282 282 282 297 300 300 303 306 307 307 308 309 309 311 312 314 315 316 317 319 319 320 321 322 323 323 324 324 325 325 325 325 322 320 319 317 317 316 317 317 317 317 316 316 316 316 316 316 316 316 316 315 314 313 312 313 312 313 313 314 313
286 281 283 285 288 289 291 291 287 289 290 289 283 288 286 278 281 279 277 271 272 271 269 279 280 280 281 283 292 295 298 301 305 308 307 307 308 309 310 312 314 315 316 316 317 316 317 319 320 321 322 324 324 325 326 325 323 321 319 317 317 317 318 318 318 317 317 317 317 316 315 315 315 316 316 316 315 314 313 313 312 312 312 311 312 313
286 281 281 284 286 289 289 285 281 282 289 290 291 288 289 283 280 278 277 278 278 271 270 274 279 276 283 286 295 296 299 302 304 306 307 308 308 308 309 311 312 313 315 316 317 317 317 317 319 320 321 322 322 322 323 322 321 319 318 317 318 318 319 319 318 318 317 317 316 316 315 314 315 316 316 316 315 314 313 313 313 312 311 312 312 310
283 284 275 281 285 288 285 286 284 280 283 285 285 283 286 284 285 284 283 281 278 271 269 271 272 277 283 294 298 299 300 302 303 303 304 306 308 309 310 310 311 312 313 315 315 316 316 317 318 319 320 320 320 318 317 318 318 317 317 318 319 319 319 319 318 318 318 317 316 315 315 314 315 315 316 316 315 314 313 313 313 312 312 311 310 310
282 282 278 279 282 280 284 287 290 287 283 282 283 280 283 282 283 280 277 281 279 277 272 273 271 276 286 301 302 300 297 300 304 306 306 306 307 307 308 310 311 311 313 314 314 315 315 316 318 319 319 318 317 316 316 317 318 317 318 319 319 319 319 319 318 317 317 317 316 315 315 315 315 316 316 315 314 314 313 313 312 312 312 312 310 310
287 282 282 281 282 284 287 291 291 293 292 286 288 287 284 280 281 276 274 278 280 282 280 278 275 277 294 303 303 302 303 304 305 305 305 306 307 307 308 310 310 311 311 312 312 313 314 315 315 316 316 315 316 316 316 316 317 317 318 318 319 319 318 319 319 318 318 317 316 316 315 315 315 316 316 315 314 313 313 313 312 313 312 311 310 310
302 280 279 280 280 283 287 288 289 291 293 288 290 287 286 286 283 282 277 279 279 280 279 276 275 279 295 305 305 305 306 305 305 305 304 304 306 308 310 310 310 310 311 313 313 312 313 313 314 314 313 314 314 315 315 315 316 316 318 318 319 318 318 319 319 318 318 317 316 316 315 315 315 315 315 314 314 313 313 312 312 313 312 312 311 310
285 284 279 277 274 276 278 282 283 286 289 285 286 286 288 287 285 282 282 280 279 281 278 278 273 279 296 305 305 305 305 305 305 305 306 304 304 304 305 307 308 309 310 311 313 313 314 314 314 313 314 314 314 314 313 313 313 315 317 318 318 318 319 319 319 318 318 317 315 315 315 314 315 314 314 314 314 313 313 312 313 313 312 312 312 310
287 285 282 274 271 271 271 272 273 276 285 284 287 287 288 286 284 284 282 279 277 279 280 278 277 286 299 303 302 303 304 303 303 302 301 301 301 301 302 302 303 303 304 305 306 308 309 311 313 314 314 314 315 315 314 314 316 317 318 319 318 318 318 318 318 318 317 316 315 314 314 314 314 314 314 314 313 313 313 313 312 313 313 314 312 311
285 286 284 280 278 277 276 276 280 284 282 282 285 285 286 285 285 284 280 277 276 277 276 282 288 291 296 298 299 301 302 301 299 298 298 298 299 300 300 300 300 299 300 301 302 303 305 306 309 313 314 315 315 316 316 316 316 317 317 318 319 318 319 319 318 318 317 316 315 314 314 314 314 314 313 313 313 314 314 314 313 314 314 314 313 311
285 284 286 284 284 281 282 283 285 287 284 284 283 284 287 287 285 283 277 282 281 283 278 287 293 292 294 298 299 300 300 297 295 295 296 296 297 297 298 298 298 298 298 299 299 300 301 303 305 309 312 313 314 314 314 314 314 315 315 315 316 316 316 316 318 317 317 316 315 314 314 315 315 314 314 313 312 312 312 314 314 313 313 313 312 312
285 281 287 284 285 287 288 287 288 287 285 284 285 285 287 288 287 285 283 283 281 277 279 291 295 293 292 293 297 297 296 293 293 294 295 297 297 296 296 295 295 296 297 297 298 299 300 301 303 306 310 312 313 313 313 313 313 314 314 315 315 316 315 315 315 315 313 313 313 314 315 315 314 314 314 314 313 313 312 313 313 313 313 313 312 312
287 283 287 286 284 286 288 287 287 286 284 284 284 286 288 289 288 288 287 286 284 284 290 293 289 286 289 291 293 293 294 294 293 295 295 294 294 294 294 294 294 295 295 296 297 298 299 300 301 303 305 309 311 312 312 313 314 314 314 314 315 315 315 316 315 313 312 312 311 312 313 314 314 314 313 313 312 313 313 313 313 313 313 313 312 311
288 283 289 286 282 282 287 288 287 286 284 283 284 286 286 287 290 291 291 292 293 291 290 290 288 285 290 293 292 294 294 293 293 292 292 293 294 294 293 293 294 294 295 295 296 296 297 299 300 300 300 300 302 304 305 307 309 312 314 315 316 316 316 317 315 314 312 312 312 312 311 312 313 313 312 312 312 312 313 313 313 312 312 313 313 312
289 283 287 284 282 282 286 286 286 286 283 282 283 284 286 285 285 286 286 289 288 288 290 289 287 285 289 291 291 291 291 291 290 291 291 292 293 293 292 293 293 293 294 295 295 296 296 296 297 298 299 298 299 300 301 302 304 304 306 308 311 314 315 315 316 315 314 314 313 313 313 312 312 312 311 312 312 312 311 310 310 310 309 309 309 309
287 286 284 284 283 280 286 287 285 285 285 282 279 284 286 288 289 288 288 288 289 292 289 288 287 288 290 291 288 288 289 289 289 290 291 292 292 292 292 292 292 293 293 294 295 295 296 296 296 297 297 298 298 298 299 299 299 299 301 302 304 305 304 304 305 306 307 311 313 313 313 313 312 311 311 311 311 310 310 310 309 309 310 309 307 308
290 288 284 285 282 281 284 285 285 283 278 278 286 290 289 287 288 286 284 286 287 289 285 288 288 289 289 289 287 285 286 287 288 289 292 292 292 291 291 291 292 293 292 293 294 295 295 295 296 296 297 297 297 298 299 299 299 298 300 300 300 300 300 300 300 300 301 302 304 308 312 313 312 311 310 310 309 309 309 309 308 308 307 308 308 307
287 285 284 285 284 282 283 284 281 276 278 286 291 291 291 290 289 287 287 288 288 288 288 286 286 286 286 287 287 286 287 289 291 291 291 292 292 291 291 291 292 292 292 292 293 294 294 294 295 295 295 296 296 296 297 297 298 298 298 299 298 299 299 299 298 298 298 299 300 301 304 308 310 310 309 309 308 308 307 306 306 307 306 306 307 307
286 285 283 283 282 282 280 278 275 275 285 289 291 291 293 291 290 289 287 288 288 288 287 285 285 286 287 287 288 289 288 288 289 291 291 292 293 291 290 290 290 290 289 290 291 292 293 294 294 294 294 296 295 295 295 296 296 296 296 297 297 297 298 297 297 297 297 297 298 298 299 300 300 301 302 303 304 304 304 304 304 305 304 304 303 303
290 286 284 282 283 278 277 278 279 285 285 287 286 286 287 285 285 285 283 285 288 289 287 285 286 287 287 288 289 289 290 290 287 286 290 292 292 292 293 293 293 292 292 293 293 293 294 294 294 294 295 294 294 294 295 295 296 295 295 295 295 296 296 296 295 296 296 296 297 297 298 298 298 298 299 299 298 299 299 300 301 304 304 305 302 303
289 286 283 281 279 281 281 279 280 280 278 282 286 289 290 289 288 288 287 284 289 289 289 287 286 287 288 288 289 290 291 288 284 284 288 291 292 291 291 292 294 294 293 293 293 293 294 294 295 295 295 294 294 294 295 295 295 294 294 294 294 294 294 294 294 295 295 295 296 296 297 297 297 297 297 297 297 297 297 297 298 299 301 303 303 303
289 288 285 283 277 280 279 278 278 277 279 284 285 286 288 287 288 288 286 283 288 289 289 288 287 288 289 289 290 291 289 284 283 284 287 290 291 292 292 292 293 293 292 293 293 292 293 294 294 294 294 294 293 294 294 294 294 293 293 293 293 293 293 293 293 294 294 294 295 295 296 296 296 296 296 296 296 297 296 296 296 297 298 298 298 298
285 281 282 281 276 276 275 274 275 277 278 284 286 287 287 287 288 287 278 280 287 290 290 290 288 289 290 291 292 290 288 284 283 285 287 289 291 293 293 292 292 293 293 293 294 294 294 294 294 293 293 293 293 294 294 294 294 294 293 293 293 292 292 292 293 294 294 294 294 294 294 295 295 295 295 295 295 296 296 297 297 296 296 296 296 297
276 278 280 276 274 276 278 276 276 278 283 286 287 287 288 289 288 280 275 281 288 290 291 291 290 291 292 291 290 285 288 290 289 288 289 290 290 290 292 294 294 294 293 293 293 294 293 293 292 292 292 292 293 294 294 293 293 292 292 292 292 291 292 293 293 293 293 293 293 293 293 293 294 294 294 294 294 295 295 295 296 296 296 295 295 295
276 274 276 276 276 274 274 275 274 275 282 286 288 288 289 288 282 280 285 288 290 290 292 293 292 293 291 289 289 289 289 290 291 291 290 290 291 291 292 292 292 293 294 294 294 293 292 292 291 291 291 292 293 293 293 293 292 291 291 291 291 291 293 293 293 293 293 292 292 292 292 293 293 294 294 294 293 292 292 293 294 295 295 295 295 294
276 272 274 274 275 274 273 273 274 274 282 287 286 288 291 284 284 288 288 289 292 291 292 294 294 291 290 289 290 290 290 290 290 290 290 290 289 289 289 290 290 290 290 290 291 292 292 291 291 291 291 292 292 292 292 292 291 291 291 290 291 292 292 292 292 292 292 292 292 293 292 292 292 292 293 293 293 293 292 292 292 292 293 293 292 292
280 274 274 274 279 272 273 274 274 280 284 288 286 282 286 288 289 289 290 289 292 293 293 292 292 291 292 291 290 290 289 288 288 289 288 288 288 288 289 289 289 289 290 290 291 291 291 290 291 290 291 291 292 292 292 292 291 291 290 290 292 292 292 292 292 292 291 291 291 291 292 292 292 292 291 291 291 291 291 291 292 292 292 292 291 291
283 279 277 274 279 274 276 280 285 287 287 289 288 287 288 290 293 293 292 291 291 291 293 291 291 291 291 290 289 288 286 287 286 287 287 286 287 287 287 288 288 288 289 289 290 291 291 290 290 290 290 290 291 291 291 291 291 290 289 290 292 291 291 291 291 290 289 289 289 289 290 290 290 291 290 290 290 290 290 290 290 290 290 290 289 289
285 283 282 283 281 286 287 288 289 288 288 288 289 289 289 290 291 292 291 288 288 289 290 290 290 289 289 289 287 287 286 286 286 286 286 286 285 285 286 286 286 286 287 287 288 289 290 290 290 290 289 289 289 289 289 289 289 289 288 289 289 289 289 290 290 289 289 289 289 289 289 289 289 290 290 290 290 290 290 289 290 289 289 289 289 288
283 282 280 280 284 280 278 287 286 287 289 288 289 291 292 292 291 291 290 289 289 290 290 290 290 289 289 289 288 287 287 287 287 286 287 286 285 285 285 285 284 284 285 286 286 288 288 289 289 288 288 288 287 288 288 288 288 287 288 288 288 288 289 289 289 289 288 287 288 288 288 288 288 288 288 288 288 289 289 289 288 289 289 288 288 288
280 283 281 279 279 278 281 285 287 289 289 290 289 288 288 290 291 292 292 291 291 291 291 291 292 290 290 289 289 288 287 287 286 285 285 285 284 284 284 285 284 285 284 284 285 286 286 287 287 287 287 288 287 287 288 288 288 287 287 287 287 287 288 288 288 287 286 286 287 287 287 287 286 287 287 287 287 287 287 287 287 287 287 287 287 287
280 282 275 279 278 281 283 285 287 288 288 288 289 290 291 292 292 292 292 292 292 290 290 290 291 291 290 289 289 288 286 286 286 286 284 283 283 283 283 283 283 283 283 285 285 285 285 285 286 285 286 286 286 286 287 287 287 287 287 287 287 287 288 288 287 287 287 286 286 287 288 287 286 286 286 286 287 286 286 286 286 286 287 287 288 288
280 279 280 279 277 273 276 281 284 281 280 285 288 290 291 291 291 291 291 291 291 290 290 289 289 290 290 290 288 288 286 285 286 286 285 284 284 283 282 282 282 283 283 284 285 284 286 285 285 285 285 285 285 286 287 287 287 287 287 286 286 287 288 288 287 286 286 286 286 287 287 286 286 286 286 286 285 286 286 285 288 287 287 287 289 289
280 281 277 272 271 274 278 282 281 282 284 286 288 290 292 293 291 290 289 289 290 291 290 289 288 288 288 288 288 287 286 285 284 284 284 283 282 282 282 283 283 283 284 284 284 283 284 284 286 285 284 284 285 285 286 286 286 286 287 286 285 285 286 286 286 285 284 286 286 285 286 285 285 285 284 284 284 284 284 285 286 287 288 289 289 289
Wind_Speed
4 4 4 8 3 4 3 6 7 6 3 2 2 1 4 4 8 2 3 5 2 2 6 8 6 5 9 9 6 8 7 8 4 6 8 8 10 9 9 13 11 10 11 7 7 8 7 7 6 5 3 4 4 4 5 5 6 7 7 7 7 6 7 7 7 6 7 7 8 6 6 6 6 6 6 5 4 5 5 5 5 5 5 5 5 4
3 4 9 6 6 7 7 6 4 3 0 2 1 3 7 3 9 2 3 3 4 4 4 3 2 7 10 10 5 4 5 12 11 10 10 11 10 10 13 13 12 7 6 8 8 7 7 6 7 6 6 5 7 6 6 6 5 6 7 7 7 7 7 7 6 6 5 5 6 6 5 5 5 6 6 5 4 5 4 5 5 5 4 5 5 4
1 7 4 6 7 4 4 4 4 4 2 1 3 2 5 7 5 7 5 3 1 5 7 4 2 9 11 7 6 9 12 12 16 16 16 14 12 9 11 12 10 10 11 9 8 8 7 8 8 7 6 5 6 5 6 5 6 6 6 6 6 6 7 6 6 6 5 4 5 5 5 6 4 1 3 4 4 4 4 4 4 4 4 4 4 4
2 7 8 5 4 4 1 3 4 3 1 2 1 1 9 2 3 6 5 2 2 0 4 5 6 10 7 7 5 3 7 5 8 13 11 15 16 14 16 16 15 13 12 11 10 10 9 9 8 8 8 7 5 5 5 5 6 5 5 5 6 6 6 6 6 5 5 6 7 6 6 4 4 5 4 4 5 5 5 4 3 3 4 4 4 4
8 3 1 5 5 6 5 3 3 2 4 2 4 4 4 0 4 7 6 3 5 4 2 3 3 7 4 6 6 6 5 6 4 3 5 8 12 15 12 9 13 17 16 13 12 10 10 9 10 10 8 6 6 7 6 4 5 4 6 6 6 6 6 6 7 7 7 8 7 6 6 7 7 6 6 6 4 4 5 5 3 4 4 5 5 4
9 8 3 5 1 2 3 1 4 5 5 2 6 10 7 5 7 8 3 4 6 6 1 0 5 4 4 4 5 7 7 4 2 7 9 13 12 10 12 15 11 8 8 12 12 12 10 10 9 8 9 9 7 6 4 4 5 6 6 7 6 6 6 7 8 9 8 7 8 7 7 7 5 6 6 6 7 5 5 6 3 3 3 4 4 4
6 1 7 6 5 4 4 4 4 6 6 1 6 9 11 10 8 5 2 2 1 1 2 2 1 7 4 3 7 5 6 9 3 5 9 10 12 13 13 12 13 12 10 8 8 9 10 10 10 9 8 7 7 5 4 5 6 7 7 7 8 7 6 7 8 9 7 7 7 8 6 6 7 7 2 3 4 5 4 4 5 4 3 3 5 3
2 2 5 3 4 5 2 4 5 10 5 3 6 9 7 6 5 6 2 4 6 2 4 2 3 4 7 4 3 3 1 5 3 4 7 10 12 13 11 10 10 10 10 9 11 11 10 9 9 10 7 6 6 5 6 5 6 8 9 9 8 7 7 7 8 8 8 8 6 6 5 6 7 6 6 5 4 4 4 6 4 4 4 3 3 5
5 4 5 4 2 3 7 5 4 8 7 7 2 9 8 10 9 4 4 4 2 1 9 2 0 0 3 3 3 4 3 4 7 8 10 12 11 9 7 7 8 8 9 10 10 11 10 10 9 7 8 7 7 7 7 6 6 7 8 8 8 8 8 7 8 8 7 7 7 7 7 6 4 6 6 5 4 5 5 6 4 5 4 4 4 3
2 6 10 9 7 6 6 4 9 11 5 6 4 3 2 2 2 3 3 3 1 1 7 5 2 2 6 5 2 3 1 6 7 6 7 8 8 8 8 8 9 8 8 7 6 7 7 9 8 7 8 9 8 7 7 7 7 7 8 9 9 8 7 7 7 7 7 6 7 8 7 9 6 6 5 5 6 4 5 6 4 4 5 4 5 4
2 2 7 6 6 8 5 5 9 12 11 3 6 3 2 5 2 3 4 2 3 2 10 5 3 2 4 3 4 3 4 4 5 5 5 5 8 9 8 9 9 9 8 8 8 8 7 7 7 8 10 9 8 7 9 8 8 7 8 8 9 8 7 7 8 7 7 7 7 8 9 10 9 7 7 7 5 5 5 6 4 5 4 3 4 4
1 1 0 2 5 2 3 1 4 9 4 2 0 1 1 1 5 3 3 4 2 6 9 3 3 4 4 3 3 4 4 5 6 9 9 9 11 10 9 9 10 10 7 7 7 6 6 7 7 8 10 10 8 8 9 8 8 7 7 9 9 8 8 7 7 7 7 7 7 7 9 10 10 10 7 8 7 6 7 6 6 4 5 3 4 3
4 5 3 5 3 10 2 3 4 0 1 4 3 2 2 2 2 1 2 1 5 7 2 1 5 2 6 3 3 9 8 8 8 10 8 7 7 8 8 8 7 5 7 6 6 5 6 3 4 6 8 9 8 7 8 9 8 7 8 9 10 9 8 8 8 9 8 7 7 8 8 9 9 9 9 8 7 5 7 6 6 6 6 4 5 3
6 3 1 5 3 4 5 5 2 1 1 6 6 5 4 1 1 1 4 1 4 7 5 1 1 1 3 3 2 7 9 10 10 8 4 3 5 3 2 4 7 9 8 7 6 6 5 4 2 7 4 6 5 5 6 7 7 7 8 9 10 9 7 7 7 8 8 7 7 7 8 8 8 8 8 7 8 6 6 7 7 7 7 6 6 5
1 2 5 4 2 2 7 10 11 6 8 9 2 11 8 8 5 2 3 4 6 6 2 3 2 2 1 3 4 4 5 6 5 3 4 6 6 9 9 8 8 9 8 2 1 4 5 6 2 5 6 4 3 4 5 5 6 7 7 8 8 9 7 8 8 7 8 7 6 6 7 8 7 8 7 7 7 7 7 6 7 6 6 6 5 5
6 5 6 5 1 3 5 4 3 4 4 1 3 5 6 5 6 3 5 4 1 1 1 1 1 2 2 3 3 2 5 9 7 8 10 11 12 11 10 9 9 9 3 4 5 5 5 4 4 6 5 4 4 5 4 4 5 5 5 5 6 8 8 7 7 7 8 7 6 7 7 7 7 6 6 6 5 6 7 7 7 6 5 5 5 3
1 2 2 7 2 4 5 3 3 8 2 3 5 5 7 3 8 5 1 2 4 4 2 0 4 3 5 3 3 4 6 7 8 9 11 12 12 11 10 7 9 5 5 5 6 5 5 7 2 6 5 4 5 5 5 3 3 2 3 2 4 4 5 7 8 6 5 7 7 7 8 8 7 9 10 9 8 7 4 5 5 6 4 3 4 4
3 5 4 2 6 3 1 2 0 1 5 6 2 7 1 3 5 5 4 2 2 2 4 1 1 4 3 2 2 4 4 7 8 9 9 8 9 10 10 11 6 4 6 6 5 6 5 4 6 6 4 5 6 4 5 5 4 6 7 9 10 11 13 10 7 7 6 5 8 8 8 8 10 9 8 7 7 5 6 3 4 5 5 5 4 4
2 3 5 3 5 7 5 2 4 1 1 7 4 5 5 2 2 2 5 0 0 1 2 1 1 3 3 4 4 4 5 6 7 6 9 10 7 4 7 11 7 5 6 6 4 4 3 3 4 6 5 6 6 7 7 6 7 9 10 11 14 12 9 10 6 5 6 7 6 7 8 8 5 5 6 5 7 7 7 6 5 6 5 5 4 5
1 1 6 2 2 2 2 3 2 2 2 2 3 4 1 3 2 4 5 3 5 3 2 4 2 2 3 2 3 7 4 4 7 8 8 10 9 7 7 9 9 6 4 4 6 6 3 1 3 4 6 6 7 7 6 9 7 9 10 12 12 11 8 7 8 8 7 4 3 3 4 4 5 7 7 7 8 7 7 7 6 5 5 6 4 4
1 1 2 3 3 2 0 2 1 3 5 1 2 1 1 2 3 5 1 1 3 4 4 2 1 4 2 2 5 6 5 1 4 4 7 8 9 8 7 10 6 6 6 5 5 4 3 2 3 5 5 6 7 11 11 10 10 13 13 12 13 12 9 8 6 6 5 4 5 5 5 6 6 6 5 6 5 7 6 6 6 6 5 5 4 5
3 1 5 3 5 1 3 2 2 1 4 4 8 6 7 7 4 2 3 1 2 3 2 3 5 5 5 2 3 3 2 5 1 3 6 7 8 6 4 7 8 6 5 5 5 5 5 5 5 6 7 8 9 10 12 11 10 11 14 13 11 11 9 8 7 4 6 4 5 5 5 6 5 6 6 7 6 6 5 5 5 5 5 5 4 4
3 3 2 0 1 1 2 2 1 0 2 2 4 2 4 2 6 4 3 3 2 0 4 2 2 2 2 1 1 0 3 2 3 3 7 7 5 4 2 4 7 7 4 6 5 3 4 7 8 7 8 7 9 9 11 10 10 10 7 10 11 11 9 9 8 7 6 6 6 6 6 6 6 6 8 7 6 5 4 4 4 4 6 5 5 2
4 2 2 2 4 5 5 4 1 1 0 1 4 3 1 2 3 6 3 5 6 2 1 1 0 2 3 3 2 4 5 4 4 5 7 7 6 5 6 7 7 6 5 5 5 4 5 5 6 7 8 6 5 7 8 9 4 2 4 8 8 10 10 8 7 7 6 6 6 5 6 6 5 6 6 7 7 6 4 4 3 3 4 4 4 5
1 2 4 2 2 5 4 5 3 2 5 3 1 3 2 1 4 2 5 1 4 5 4 6 4 2 1 2 3 5 4 6 7 9 8 9 9 9 9 9 9 9 9 8 6 5 5 7 7 7 7 4 2 3 3 5 7 5 4 4 7 7 8 7 6 6 6 7 7 6 6 6 6 6 6 7 6 6 6 4 4 3 3 3 3 3
2 2 3 3 4 4 2 1 3 1 1 3 1 5 4 2 4 3 2 1 3 1 3 3 2 4 2 4 6 6 7 8 10 10 10 9 9 9 8 7 9 9 9 9 9 9 9 7 6 7 6 4 3 4 4 4 5 5 5 5 4 7 6 7 6 6 7 6 7 6 5 5 5 5 5 4 5 7 7 6 3 2 2 2 3 2
2 1 3 4 6 7 6 2 2 0 3 3 4 5 7 2 2 3 5 4 4 4 3 3 3 6 5 7 5 6 7 9 11 11 10 9 8 10 9 10 9 8 8 8 8 7 8 10 8 8 6 5 5 5 4 5 6 6 6 6 6 5 7 7 7 8 8 7 6 7 7 6 6 6 4 4 6 6 6 6 4 3 1 1 1 3
4 5 2 5 5 0 2 4 2 1 3 1 4 5 6 7 5 3 1 2 3 9 0 1 5 7 6 7 7 7 9 11 10 9 9 9 9 10 9 9 10 10 9 9 10 11 10 8 8 7 6 7 7 7 8 7 8 7 6 7 7 6 4 2 4 7 8 8 6 6 6 5 6 7 6 4 5 7 6 6 5 4 3 2 1 1
4 3 1 2 4 5 5 4 2 5 4 4 4 5 8 8 5 6 1 1 2 2 6 6 7 7 5 6 6 8 10 11 11 11 9 8 9 11 10 10 11 10 10 12 9 8 10 9 8 8 6 7 8 9 8 7 9 7 7 7 7 7 5 5 7 8 8 8 6 4 6 6 5 4 6 6 6 6 6 6 5 4 3 1 0 1
5 3 1 2 4 6 7 7 5 5 3 5 9 9 8 8 7 6 5 2 2 4 6 10 10 8 4 6 8 8 7 10 9 8 9 10 10 10 9 10 10 10 11 11 10 10 9 9 10 9 10 10 11 10 9 8 9 8 8 7 7 7 6 7 9 9 8 8 6 5 5 5 4 4 4 5 6 5 4 3 2 0 1 1 1 1
2 0 2 1 3 2 4 6 6 6 3 6 7 10 10 8 7 8 6 6 8 10 11 10 10 6 5 6 6 7 8 9 12 12 11 10 8 8 10 10 10 11 10 10 9 10 10 10 11 12 13 12 12 11 9 9 8 8 8 7 7 7 7 8 9 8 8 7 6 6 7 6 6 6 6 5 4 1 0 0 0 1 1 1 0 1
5 1 1 1 4 1 3 6 6 2 4 7 7 12 11 9 6 4 3 5 2 8 9 11 7 3 3 6 8 9 10 12 14 11 9 7 7 9 10 10 11 11 11 10 11 10 11 10 12 13 12 11 11 12 10 10 10 10 10 9 9 9 10 9 9 9 8 6 6 6 7 5 5 5 5 5 5 4 3 2 1 1 1 3 3 2
2 5 2 2 6 1 2 3 4 3 2 2 6 6 8 4 0 2 3 6 5 1 11 9 5 6 7 5 9 9 11 12 11 10 10 11 10 9 10 11 12 12 13 11 9 9 9 10 11 11 12 11 12 11 11 10 12 11 10 11 10 11 12 12 11 10 10 8 7 5 5 6 6 6 5 4 4 4 5 6 6 5 4 3 0 2
3 5 3 1 4 2 3 4 2 3 2 1 2 5 2 3 2 6 4 6 7 5 3 5 8 9 8 8 9 8 12 10 9 9 8 6 8 10 11 12 11 11 12 12 10 9 10 9 10 11 12 12 12 12 11 13 12 11 11 10 12 13 12 12 11 10 10 10 9 7 6 6 6 6 5 4 4 3 4 6 6 5 3 3 3 4
5 5 3 1 3 3 1 2 3 1 0 2 0 3 6 9 11 11 8 8 7 9 13 12 11 9 8 8 9 10 11 12 12 12 11 10 9 8 10 10 11 10 11 9 11 12 11 12 12 12 13 12 11 10 12 13 11 11 11 12 13 12 13 12 12 12 11 11 10 9 8 8 8 8 7 6 5 6 6 5 3 4 4 4 5 5
5 6 3 3 2 2 2 2 3 1 1 2 1 0 0 1 1 1 8 9 8 6 9 12 9 10 10 10 9 8 11 10 11 11 9 10 10 9 10 9 9 10 12 10 9 11 11 12 12 12 12 9 10 11 12 11 9 13 12 12 13 12 12 12 13 12 12 12 10 10 9 9 10 10 9 8 8 8 7 6 5 5 5 4 4 2
9 4 4 3 1 3 2 3 2 2 1 1 1 3 3 2 3 1 3 4 5 4 4 12 11 10 11 10 10 9 8 10 14 10 11 10 9 9 9 9 8 9 10 11 10 10 9 10 12 12 12 12 12 12 10 8 9 11 12 13 11 11 11 13 13 11 11 10 10 10 10 9 9 9 9 9 9 9 8 8 7 7 5 4 4 4
3 5 2 3 0 3 4 4 2 1 1 2 1 1 1 2 2 3 1 2 3 6 6 12 13 11 11 9 8 9 5 12 11 6 6 8 8 9 10 10 9 9 10 10 9 9 10 10 10 12 13 13 13 11 9 8 9 12 13 12 11 12 10 10 10 9 10 10 8 9 9 9 9 9 9 9 10 8 7 7 7 7 6 6 5 6
7 8 6 4 2 2 2 4 1 2 1 2 3 5 4 3 3 1 2 2 2 5 5 8 11 8 11 10 7 3 5 7 4 2 3 6 6 5 9 9 10 11 11 10 10 10 10 10 11 11 12 12 12 10 10 9 11 13 12 11 11 11 11 11 9 8 9 9 8 7 8 8 8 8 8 8 8 7 8 8 7 5 6 6 6 6
8 5 4 5 3 2 3 3 2 0 1 1 4 5 6 4 2 1 2 2 6 8 7 7 10 12 8 4 2 5 4 10 8 4 2 2 5 6 9 11 10 9 9 8 9 9 9 10 13 13 12 11 9 8 10 10 11 12 10 9 9 12 10 8 7 7 7 8 8 8 8 7 8 8 8 7 6 6 6 5 7 8 7 7 6 7
5 4 6 3 2 5 5 1 2 1 1 2 6 10 9 3 1 2 2 1 7 8 6 5 7 8 6 5 1 4 4 6 9 9 6 4 7 9 8 8 7 6 7 7 8 8 9 9 9 9 8 7 7 8 7 8 10 11 9 8 10 10 7 6 5 6 6 7 8 8 8 7 7 8 7 6 5 5 7 7 6 7 7 7 6 7
5 2 1 3 6 3 1 3 1 1 1 4 9 9 6 1 2 1 1 2 11 10 7 7 8 5 3 4 6 8 10 12 12 9 7 6 6 7 7 7 7 7 6 6 7 8 9 8 9 9 9 8 8 6 5 7 9 7 7 8 9 6 5 5 5 5 6 7 7 7 8 8 7 7 6 6 6 7 7 6 6 6 6 6 7 8
2 2 1 2 1 1 3 4 2 1 1 8 14 5 2 1 1 1 3 5 7 10 10 7 3 5 9 10 12 14 13 12 11 10 7 6 7 7 7 6 6 7 6 7 8 7 8 8 8 8 7 5 5 4 3 6 8 7 7 9 7 4 4 4 5 6 6 7 7 6 7 7 8 7 6 6 7 8 8 7 8 8 7 7 6 7
1 2 1 1 1 1 3 2 1 2 7 9 5 1 4 1 3 1 1 9 5 7 8 6 4 7 10 14 12 11 10 11 10 9 9 8 8 8 7 7 7 7 7 7 7 6 7 8 7 7 6 6 6 5 5 6 8 8 9 8 6 6 6 7 7 8 8 7 6 7 7 6 6 6 6 6 6 7 7 7 7 7 7 7 6 6
6 3 2 3 2 2 1 1 2 3 5 5 2 3 2 3 3 5 6 5 7 4 4 7 8 8 10 12 11 11 10 8 9 8 9 7 7 7 7 6 6 6 6 6 6 5 6 7 7 7 7 7 8 7 7 7 8 8 8 6 6 6 6 6 7 7 8 8 8 7 6 7 7 7 7 6 6 7 7 7 6 6 6 6 6 6
1 2 1 4 4 5 7 4 1 4 5 5 4 3 5 8 8 7 8 8 6 5 5 8 9 9 9 9 13 9 9 9 10 8 8 7 7 5 5 5 5 5 5 5 5 5 5 5 6 7 7 7 7 7 6 7 7 8 4 4 5 5 4 5 6 7 7 6 6 6 6 7 7 7 7 7 6 6 5 5 5 5 5 5 5 5
3 1 2 4 1 2 3 5 6 5 5 5 6 9 11 10 9 9 11 9 9 10 11 9 9 9 9 9 10 12 10 9 10 8 7 7 7 5 5 5 4 3 4 5 2 3 5 6 7 7 6 7 5 5 5 5 5 4 4 4 4 4 4 5 5 5 5 5 5 5 5 6 5 5 5 5 5 5 5 5 5 5 5 5 5 4
1 1 6 2 3 4 2 1 2 3 5 5 5 8 10 11 11 11 10 10 11 11 11 10 10 10 9 10 9 10 9 7 10 7 6 5 5 5 4 4 5 5 4 3 3 4 4 5 5 5 5 5 4 5 5 5 5 4 4 3 3 3 4 5 5 5 5 5 4 4 4 5 5 5 5 5 5 5 5 5 4 4 4 4 4 4
2 3 1 1 4 2 3 1 3 8 9 7 7 7 6 8 11 11 11 12 13 13 12 11 8 6 8 8 8 10 9 5 7 8 8 5 5 4 4 4 4 4 4 4 2 3 5 4 4 4 4 2 2 3 4 4 4 4 4 4 4 4 6 6 5 5 5 5 5 5 4 5 5 5 5 5 5 5 4 5 5 4 3 1 1 1
3 4 0 4 5 1 2 3 2 4 3 4 6 6 6 7 11 12 11 11 11 11 10 9 7 5 6 5 7 8 10 7 5 7 8 6 6 5 4 4 4 4 4 2 3 3 4 4 4 4 3 1 1 2 2 1 1 1 1 2 3 4 5 4 5 5 5 5 5 5 6 6 6 6 6 6 6 6 6 6 7 5 4 5 7 8
2 3 3 1 4 1 4 3 1 4 5 1 3 3 4 4 9 12 11 10 9 9 10 10 8 5 5 3 2 9 9 8 6 5 6 4 4 4 4 6 6 4 4 3 4 4 4 3 3 3 3 1 1 2 1 1 1 0 0 0 1 3 3 3 3 3 3 3 4 3 4 4 5 5 5 5 5 5 6 6 6 6 7 6 7 8
Wind_Direction
136 158 180 214 191 178 212 182 187 188 150 109 130 167 225 247 270 260 220 248 188 305 251 250 250 248 268 265 253 207 202 218 209 197 195 176 165 157 164 179 188 183 186 165 148 160 174 192 214 225 210 194 191 194 184 167 156 148 153 150 154 140 137 137 136 136 135 131 123 120 122 123 131 131 131 135 143 149 157 154 155 159 156 154 151 145
94 169 233 207 175 166 195 191 139 103 64 210 270 265 281 213 270 288 290 241 215 171 286 266 306 278 263 269 271 230 179 210 205 202 198 178 172 165 172 182 186 162 152 143 143 155 161 182 206 213 211 197 201 200 183 179 150 146 149 155 140 135 139 143 142 135 131 135 140 137 134 132 136 139 141 139 148 153 154 152 154 155 151 148 147 143
118 204 237 181 191 162 93 108 140 164 172 117 193 251 290 267 255 279 250 269 291 137 250 301 314 278 278 283 264 183 193 212 205 194 192 171 169 168 180 184 173 162 176 163 153 156 167 180 199 209 211 208 209 196 188 168 141 141 150 140 133 136 138 138 139 137 132 125 122 128 137 139 118 79 125 125 142 140 136 135 140 142 140 138 132 135
285 274 222 196 147 137 82 103 114 82 68 163 151 187 253 242 357 302 291 355 335 187 285 283 297 282 301 303 290 266 230 260 234 210 186 168 175 179 184 185 179 173 170 173 169 166 166 182 193 204 208 203 189 183 184 163 146 134 132 126 128 131 127 132 139 126 122 114 106 99 113 112 120 140 110 93 115 116 108 98 105 115 130 128 130 135
210 195 111 120 140 154 198 165 132 156 258 265 191 215 258 215 218 191 265 350 306 300 195 274 312 306 335 343 332 320 305 274 278 124 136 193 194 192 188 183 184 180 175 167 164 160 170 179 192 199 199 190 191 185 177 157 138 130 126 127 132 131 135 135 132 131 126 112 103 106 96 100 88 82 100 106 77 97 109 107 116 144 133 133 134 136
260 248 112 109 113 154 177 219 213 160 239 305 227 206 215 209 242 247 283 14 15 329 312 114 11 300 299 316 323 315 340 305 258 173 181 183 185 173 187 195 186 185 179 177 163 162 173 182 181 194 194 198 193 183 167 135 121 123 124 128 131 130 138 140 139 142 139 142 140 135 132 127 118 120 132 139 145 135 140 154 151 103 115 127 125 134
224 169 164 182 157 155 171 201 233 151 202 204 273 197 210 214 228 253 264 82 291 226 302 44 102 276 326 356 335 337 322 312 319 211 189 182 185 189 196 184 183 174 161 160 160 171 177 183 185 188 187 192 190 176 139 129 126 126 132 138 142 147 145 144 146 148 141 141 151 153 147 139 141 134 115 94 111 132 137 122 115 116 92 105 134 136
125 162 154 126 146 158 135 252 234 161 141 241 236 173 189 203 223 241 192 182 237 265 293 41 125 206 300 298 282 300 338 319 306 235 204 196 194 198 192 184 176 169 160 159 172 183 180 174 181 182 167 173 175 148 139 136 135 138 141 145 149 150 149 150 149 149 152 152 154 137 131 133 135 141 140 130 123 115 122 106 106 101 84 84 110 131
151 177 157 149 143 139 201 206 175 157 148 219 218 158 174 189 205 186 162 189 227 5 285 320 348 183 257 262 304 345 359 319 269 228 221 209 203 197 187 175 161 162 164 169 180 185 177 169 167 159 157 155 149 148 152 151 143 140 142 143 146 149 148 152 154 150 158 154 150 141 135 126 115 116 120 116 102 110 110 105 96 98 102 92 78 80
267 168 195 164 151 208 225 200 165 164 201 274 151 190 112 96 91 149 151 151 300 87 275 255 223 203 282 284 328 347 316 265 251 248 237 223 212 198 186 168 155 158 165 180 186 169 161 162 161 151 143 145 149 148 143 137 139 143 143 145 148 149 149 155 155 152 152 147 142 139 138 128 118 106 95 102 110 113 124 120 120 115 104 97 84 72
219 316 149 121 185 212 195 206 170 188 200 118 107 125 44 41 33 40 80 95 76 274 253 238 236 174 282 263 199 118 226 232 283 276 241 216 211 199 186 167 165 162 166 174 170 176 164 145 137 137 149 144 137 142 143 146 150 150 149 145 147 152 150 156 156 151 152 150 151 144 141 135 132 130 125 115 108 117 116 124 121 114 103 81 81 78
354 26 122 240 183 178 140 223 228 205 204 206 354 136 54 339 11 35 343 45 151 266 258 273 196 152 167 293 316 247 278 257 240 242 234 215 207 197 182 175 174 172 157 161 156 159 137 136 140 145 149 147 146 142 151 154 150 154 153 150 147 151 154 155 153 146 151 153 151 143 141 139 141 141 142 140 148 151 141 134 126 115 106 95 82 74
276 226 230 276 233 190 197 213 313 303 196 135 93 65 140 266 45 288 17 230 215 216 250 68 129 89 230 215 255 307 302 283 243 240 242 237 225 206 192 180 163 140 94 74 70 64 33 62 125 134 139 142 154 158 158 155 152 155 159 158 152 156 157 157 155 152 152 149 151 148 143 139 143 146 143 145 144 156 142 138 129 132 133 139 110 110
274 289 275 253 326 205 154 196 273 16 158 129 152 159 104 156 59 242 270 212 312 285 247 359 172 245 241 287 240 306 299 287 277 242 233 267 243 240 14 43 66 75 81 77 93 122 162 202 247 139 127 135 157 158 152 152 152 159 166 167 160 156 155 150 148 148 147 150 148 146 141 142 143 144 145 149 147 161 154 152 150 154 158 162 162 160
4 346 274 153 250 200 169 193 201 181 160 193 134 155 181 146 159 212 202 219 225 218 283 288 124 237 96 235 336 295 299 325 344 35 42 45 42 43 39 47 58 56 35 22 53 86 121 136 162 135 133 151 149 148 144 155 161 161 173 172 159 145 149 147 147 143 141 139 138 138 140 141 144 144 146 152 154 155 155 160 151 161 162 153 172 157
196 200 257 221 166 139 175 237 127 96 99 201 164 51 90 215 143 187 205 165 260 327 321 345 181 161 182 291 298 334 8 12 15 45 50 46 55 53 51 38 48 69 63 69 64 71 107 75 142 126 124 124 130 143 140 155 162 175 173 167 154 149 145 139 134 134 137 137 136 136 140 141 135 132 131 139 151 158 159 157 155 160 168 159 148 146
38 292 268 311 172 198 217 158 205 147 197 232 103 182 211 167 114 77 68 54 101 57 241 227 316 308 303 329 291 347 26 19 27 54 67 72 74 72 89 49 35 43 72 79 60 42 75 126 96 99 110 107 106 132 140 134 146 156 120 119 113 103 103 106 109 114 115 129 133 144 143 139 143 149 153 158 162 159 152 144 147 147 151 132 132 133
142 241 289 91 303 287 204 182 192 240 144 92 172 234 148 101 115 130 202 342 71 167 254 36 307 307 35 266 313 346 24 28 40 64 75 79 77 85 87 97 98 91 93 87 71 61 57 76 121 105 112 123 126 116 121 123 88 66 59 51 55 55 58 45 65 93 123 146 150 154 155 159 160 158 153 148 146 138 125 107 111 114 132 159 153 135
137 302 297 239 229 274 342 116 24 2 343 155 198 174 109 265 231 321 94 229 133 259 274 332 277 254 162 252 9 6 18 23 28 70 61 54 46 44 82 83 80 103 92 97 104 87 64 100 106 121 123 115 112 124 124 108 97 90 79 84 89 84 97 121 139 155 161 162 163 161 159 155 142 126 129 134 138 143 140 146 151 154 153 138 145 134
27 189 292 296 173 318 360 58 242 274 328 37 100 89 340 105 163 133 197 170 124 222 67 290 40 239 225 219 324 308 331 35 35 53 54 72 69 62 83 73 70 51 73 100 111 117 137 158 109 113 131 125 105 77 76 95 94 79 89 98 104 123 149 152 151 151 158 150 121 106 101 103 128 139 148 152 148 148 152 156 153 146 149 160 140 129
144 94 219 280 302 346 289 350 241 166 156 103 85 256 55 22 215 105 32 86 169 166 177 169 309 281 278 238 289 295 297 305 98 63 65 64 58 44 29 76 68 73 77 90 107 91 46 28 40 73 64 71 80 83 80 86 104 125 128 140 149 148 160 154 156 160 132 117 116 122 135 132 137 146 144 139 147 145 157 159 154 158 152 126 133 133
86 110 196 313 358 359 238 256 238 210 195 171 164 197 169 124 120 146 254 24 82 99 198 131 238 267 268 279 276 275 265 321 299 139 120 98 74 56 2 57 85 78 63 40 30 60 73 66 74 74 64 63 73 96 107 131 156 159 158 149 144 145 159 149 151 139 133 137 121 128 140 146 144 142 137 143 154 157 158 153 154 149 133 145 156 153
141 162 99 243 195 225 245 257 177 124 120 186 135 182 151 120 103 97 151 234 57 47 117 147 115 276 257 310 69 47 76 63 18 40 78 89 107 122 81 70 65 64 44 56 63 66 96 91 67 56 72 89 112 126 138 156 173 181 157 138 147 149 159 160 162 155 143 134 128 147 159 147 148 149 153 150 153 165 148 142 145 148 146 149 153 173
99 64 40 303 313 296 307 282 309 47 82 19 21 50 77 170 177 166 172 180 139 182 80 11 145 252 299 53 123 103 100 64 34 41 66 59 52 81 106 78 65 60 58 67 59 40 34 39 83 86 83 88 110 138 156 177 166 57 115 144 146 146 149 150 156 146 137 132 133 142 141 143 146 152 153 157 165 154 128 132 140 141 139 149 145 149
91 293 117 55 5 338 342 348 5 335 49 69 25 329 340 26 59 151 111 67 99 209 164 127 224 269 282 104 102 118 89 77 64 49 54 60 51 45 41 44 39 32 30 35 52 47 47 57 63 74 79 77 92 86 49 38 43 45 87 142 140 136 138 135 135 128 120 122 127 140 143 145 150 156 163 165 153 134 123 125 131 140 144 145 160 162
101 186 113 123 147 160 211 249 258 283 279 289 57 355 1 55 119 95 151 63 148 247 113 129 211 264 222 108 96 103 97 73 65 62 51 48 55 54 47 49 52 38 30 27 30 28 31 40 59 80 85 95 58 51 53 54 69 77 97 113 104 121 122 125 115 109 113 120 132 136 129 129 134 148 162 152 130 127 121 112 102 114 128 178 165 138
119 51 67 147 154 188 200 217 256 146 12 52 308 17 335 331 321 110 98 95 193 184 67 231 171 160 148 116 101 74 81 76 61 52 47 46 46 52 47 50 51 53 44 38 36 32 39 38 35 71 93 72 53 54 51 60 61 69 80 94 111 117 133 133 125 127 126 134 136 133 137 139 140 131 108 103 112 108 101 92 85 71 50 10 275 151
72 67 16 95 70 97 243 242 267 103 111 14 31 335 337 354 329 80 118 174 160 110 243 233 188 131 132 111 114 111 87 69 61 55 57 55 60 63 53 52 56 53 46 47 39 34 30 24 22 30 54 72 75 69 64 54 53 52 60 66 54 44 35 52 136 142 142 140 140 142 132 128 124 113 111 117 110 102 97 77 57 38 38 38 360 276
123 114 283 87 38 28 29 30 36 90 74 94 56 21 14 350 14 91 215 190 112 124 188 163 147 122 71 26 47 60 76 88 80 76 68 66 54 56 52 48 50 46 43 46 34 39 47 35 18 16 33 63 70 68 61 59 62 56 61 58 62 63 47 62 62 60 58 51 54 75 103 106 102 104 115 105 71 61 60 65 39 27 353 356 56 8
90 53 37 102 83 37 19 22 15 92 127 54 34 26 14 26 37 61 74 21 89 121 126 121 87 68 19 28 46 56 73 87 80 73 70 60 60 63 64 59 50 44 43 45 39 34 41 45 41 36 37 42 51 53 52 46 50 57 56 55 55 59 60 64 65 68 67 73 69 42 43 71 87 99 66 62 63 52 77 93 105 265 250 277 53 36
101 265 136 48 67 4 1 354 24 30 84 77 28 26 19 13 43 46 81 74 79 76 84 91 95 69 28 32 52 54 70 79 70 63 68 70 61 67 68 65 59 55 47 47 40 42 39 48 49 49 49 49 49 49 51 51 50 53 49 52 60 64 63 71 74 75 79 80 79 78 60 45 46 47 53 60 84 70 38 6 40 334 351 63 102 144
62 158 53 89 88 12 355 2 339 21 74 90 44 17 4 3 19 347 13 337 289 145 122 109 107 119 76 60 62 53 57 60 72 67 60 44 46 65 68 60 60 51 46 43 45 38 39 35 47 46 50 50 52 50 46 48 49 47 44 42 45 51 54 55 60 67 70 72 77 87 92 94 92 90 84 87 99 115 113 88 67 68 51 40 39 41
110 131 119 109 109 262 323 340 325 346 49 8 2 339 324 303 346 29 360 356 352 198 137 157 163 116 127 105 85 58 66 65 62 57 69 65 47 53 59 60 56 51 42 18 17 24 24 37 43 47 48 51 49 50 44 54 57 49 45 46 45 56 57 56 56 56 54 49 55 64 87 90 87 81 78 86 102 107 99 94 73 50 39 44 299 121
101 107 93 303 110 201 327 315 317 76 173 243 318 328 297 302 77 72 20 357 3 41 64 40 103 112 96 84 83 84 72 63 63 51 40 52 67 59 60 60 60 56 52 28 10 23 33 42 45 42 45 52 53 53 54 55 59 53 50 53 53 54 55 59 54 54 51 50 43 46 53 68 80 86 90 89 81 90 101 99 107 119 110 102 54 61
114 88 99 88 110 148 266 1 48 166 226 157 234 26 50 74 82 85 62 36 47 95 100 85 82 79 84 91 98 92 89 78 64 61 51 45 50 55 57 52 51 58 60 38 20 29 41 45 45 40 38 38 43 48 55 53 53 60 51 53 57 52 57 52 52 47 45 46 42 43 43 53 52 50 35 35 46 51 46 51 52 60 71 79 80 82
132 117 151 52 94 71 44 22 130 243 96 201 171 36 350 351 31 69 56 37 30 41 98 100 101 106 109 107 101 97 94 87 65 46 46 49 52 60 61 57 57 62 67 56 44 33 37 46 47 44 40 30 39 46 46 44 42 62 61 57 58 56 56 59 57 49 46 46 39 43 44 53 56 51 41 39 44 46 40 36 29 26 8 48 54 61
132 98 92 81 354 140 155 88 96 115 131 176 7 6 8 16 339 30 94 10 28 19 117 121 119 116 112 110 114 120 121 94 69 40 17 34 36 36 51 58 58 62 68 57 40 40 39 44 53 53 49 42 39 41 38 37 51 64 61 57 52 54 51 54 52 44 42 43 35 37 38 42 49 51 49 46 46 42 35 31 22 17 2 34 30 31
24 128 190 106 281 114 130 91 98 25 219 129 85 339 293 261 259 247 130 55 69 77 126 127 128 130 124 133 145 145 166 84 70 55 17 28 42 58 56 51 45 55 60 64 55 42 38 42 45 47 53 44 41 36 31 31 52 60 59 56 49 51 44 46 46 39 42 39 29 33 35 38 45 48 42 44 45 38 37 34 32 28 10 28 17 28
47 73 92 108 149 80 76 118 145 162 40 77 315 306 303 300 237 206 66 72 104 128 135 137 127 138 143 149 152 183 133 88 104 80 9 23 25 52 70 60 51 48 50 54 56 47 37 41 49 49 48 45 41 28 31 34 53 60 58 54 55 56 53 50 42 36 42 42 36 31 36 39 46 48 53 50 39 34 39 38 34 15 19 27 33 38
43 9 24 51 48 39 133 83 132 328 116 333 317 308 305 294 220 189 40 265 155 158 157 161 145 151 154 133 119 59 77 131 151 144 147 76 66 53 76 80 71 61 57 52 54 59 52 43 46 43 42 40 34 28 36 34 50 57 56 53 57 60 55 48 43 41 46 46 44 42 39 35 43 44 45 46 43 39 43 38 45 35 36 30 30 32
1 355 43 103 105 42 57 60 25 359 325 332 318 316 304 266 211 95 175 237 151 143 151 159 142 140 141 134 62 95 28 91 114 126 148 138 96 85 77 73 76 76 76 70 76 71 65 56 60 60 50 37 32 34 37 50 58 60 56 53 55 53 48 47 50 52 53 51 49 45 40 35 39 44 41 35 37 44 44 34 41 49 51 43 31 36
17 55 355 62 35 52 97 87 167 205 243 333 319 306 281 317 78 233 251 161 137 137 151 157 148 140 109 97 100 98 103 106 117 129 144 144 125 118 105 96 89 79 73 74 76 81 77 65 58 56 50 39 32 28 40 58 67 65 63 62 56 41 26 38 49 58 60 57 54 48 41 38 34 34 32 28 35 46 40 28 41 47 46 47 56 57
310 72 353 34 316 34 25 72 38 33 225 34 328 316 27 62 254 271 110 99 132 137 143 144 113 99 103 96 107 113 118 126 133 138 133 119 116 110 110 104 97 95 86 77 70 65 81 78 67 57 54 45 44 35 37 66 70 65 60 56 39 24 30 37 47 58 64 64 61 58 55 48 44 38 31 33 32 46 41 26 32 31 36 39 45 48
298 88 356 33 266 127 40 51 142 278 307 329 357 332 319 307 290 73 129 123 127 138 138 121 92 117 117 121 123 115 115 113 104 102 95 91 91 90 89 90 88 85 78 69 75 76 81 82 73 66 48 39 35 33 30 53 67 58 54 41 10 20 29 32 32 39 41 37 37 42 44 46 50 50 44 39 39 46 48 37 33 33 27 29 38 39
332 104 172 128 290 104 130 72 3 314 307 313 278 275 298 335 49 72 74 81 122 103 99 104 112 116 121 116 109 112 105 97 109 112 111 107 99 95 90 78 78 80 79 81 72 72 76 84 80 69 49 29 26 23 28 28 53 51 48 17 15 24 33 38 39 43 41 36 32 30 25 34 37 40 43 43 47 54 48 44 37 46 25 34 38 39
151 122 112 82 78 103 79 59 12 355 355 360 14 5 37 49 42 56 67 80 44 64 87 112 113 112 109 113 113 96 105 117 107 102 101 102 100 90 89 83 68 64 61 58 53 54 77 81 76 71 63 39 26 30 29 34 42 55 26 14 27 30 42 50 53 51 45 40 38 29 27 37 30 31 33 36 44 58 62 64 53 60 45 42 42 38
338 84 54 96 201 23 45 8 26 5 357 15 44 53 56 57 57 60 67 61 68 76 80 74 88 95 98 95 102 113 115 116 107 102 103 102 100 102 99 99 89 93 96 80 58 75 63 66 62 58 55 50 23 36 39 47 48 56 48 46 38 46 57 67 67 66 56 50 41 34 36 47 40 37 32 33 33 41 42 42 52 57 53 46 41 37
27 101 75 68 55 77 99 12 21 80 57 33 36 65 68 66 64 66 73 73 70 66 68 73 78 75 81 88 97 106 109 115 117 117 109 111 119 119 116 112 108 83 62 87 96 91 77 72 75 65 57 49 19 24 36 45 48 46 53 50 46 53 59 56 54 55 48 40 40 37 31 36 37 41 37 31 34 30 25 30 35 46 44 44 33 20
271 18 59 318 92 61 50 58 116 83 53 42 53 55 66 85 88 80 78 78 78 75 68 59 55 81 94 107 115 116 110 110 121 128 124 126 123 121 120 116 111 118 115 106 100 102 108 101 88 84 77 61 7 27 35 33 26 27 47 44 45 53 55 47 42 42 35 28 31 23 22 27 21 21 25 16 20 25 44 40 19 20 12 346 89 81
51 53 72 60 70 359 170 201 180 94 94 43 55 68 75 82 95 92 86 85 84 84 84 81 64 61 87 115 128 125 123 125 130 130 130 139 141 142 134 127 130 126 122 126 110 112 111 123 132 129 128 181 212 157 130 97 5 348 351 31 58 63 65 55 43 37 20 18 19 10 17 15 14 11 17 20 13 7 359 15 11 5 15 344 343 348
113 191 133 128 156 203 237 223 116 128 102 104 111 81 95 113 111 109 108 111 114 124 128 121 115 98 99 70 112 129 131 137 143 127 121 133 159 167 160 146 134 132 138 145 107 91 99 120 122 106 82 66 150 130 161 176 216 247 320 31 78 97 99 92 77 60 29 31 24 19 30 29 18 7 15 18 17 12 2 347 354 347 343 353 347 349